Time,TemperatureF,DewpointF,PressureIn,WindDirection,WindDirectionDegrees,WindSpeedMPH,WindSpeedGustMPH,Humidity,HourlyPrecipIn,Conditions,Clouds,dailyrainin,SoftwareType,DateUTC
2013-02-21 14:22:00,27.0,17.0,-100.00,North,-999,-999.0,-999.0,65,0.00,,,-99.99,,2013-02-21 19:22:00,
2013-02-21 14:32:00,26.0,16.0,-100.00,East,95,6.0,8.0,65,0.00,,,-99.99,,2013-02-21 19:32:00,
2013-02-21 14:42:00,26.0,17.0,-100.00,East,100,5.0,9.0,67,0.00,,,-99.99,,2013-02-21 19:42:00,
2013-02-21 14:52:00,26.0,17.0,-100.00,East,100,3.0,8.0,67,0.00,,,-99.99,,2013-02-21 19:52:00,
2013-02-21 15:01:00,26.0,18.0,-100.00,East,95,6.0,9.0,69,0.00,,,-99.99,,2013-02-21 20:01:00,
2013-02-21 15:11:00,25.0,17.0,-100.00,ESE,110,6.0,11.0,72,0.00,,,-99.99,,2013-02-21 20:11:00,
2013-02-21 15:21:00,25.0,18.0,-100.00,East,90,7.0,11.0,73,0.00,,,-99.99,,2013-02-21 20:21:00,
2013-02-21 15:32:00,25.0,18.0,-100.00,East,90,7.0,11.0,73,0.00,,,-99.99,,2013-02-21 20:32:00,
2013-02-21 15:41:00,25.0,18.0,-100.00,East,95,6.0,12.0,73,0.00,,,-99.99,,2013-02-21 20:41:00,
2013-02-21 15:52:00,24.0,17.0,-100.00,ESE,105,6.0,12.0,73,0.00,,,-99.99,,2013-02-21 20:52:00,
2013-02-21 16:02:00,25.0,18.0,-100.00,ESE,120,7.0,11.0,73,0.00,,,-99.99,,2013-02-21 21:02:00,
2013-02-21 16:12:00,24.0,17.0,-100.00,East,85,7.0,13.0,73,0.00,,,-99.99,,2013-02-21 21:12:00,
2013-02-21 16:21:00,24.0,17.0,-100.00,ESE,105,9.0,14.0,73,0.00,,,-99.99,,2013-02-21 21:21:00,
2013-02-21 16:32:00,24.0,16.0,-100.00,East,90,10.0,13.0,73,0.00,,,-99.99,,2013-02-21 21:32:00,
2013-02-21 16:42:00,23.0,16.0,-100.00,East,100,9.0,14.0,73,0.00,,,-99.99,,2013-02-21 21:42:00,
2013-02-21 16:52:00,23.0,16.0,-100.00,ESE,110,11.0,14.0,73,0.00,,,-99.99,,2013-02-21 21:52:00,
2013-02-21 17:01:00,24.0,16.0,-100.00,ESE,105,6.0,12.0,73,0.00,,,-99.99,,2013-02-21 22:01:00,
2013-02-21 17:11:00,24.0,16.0,-100.00,ESE,105,6.0,12.0,73,0.00,,,-99.99,,2013-02-21 22:11:00,
2013-02-21 17:21:00,23.0,16.0,-100.00,ENE,70,6.0,13.0,73,0.00,,,-99.99,,2013-02-21 22:21:00,
2013-02-21 17:32:00,23.0,16.0,-100.00,East,100,8.0,11.0,73,0.00,,,-99.99,,2013-02-21 22:32:00,
2013-02-21 17:42:00,23.0,16.0,-100.00,East,100,7.0,12.0,72,0.00,,,-99.99,,2013-02-21 22:42:00,
2013-02-21 17:52:00,23.0,15.0,-100.00,East,100,7.0,11.0,71,0.00,,,-99.99,,2013-02-21 22:52:00,
2013-02-21 18:01:00,23.0,15.0,-100.00,East,100,7.0,11.0,71,0.00,,,-99.99,,2013-02-21 23:01:00,
2013-02-21 18:11:00,22.0,15.0,-100.00,East,95,11.0,16.0,71,0.00,,,-99.99,,2013-02-21 23:11:00,
2013-02-21 18:21:00,22.0,14.0,-100.00,East,100,8.0,17.0,71,0.00,,,-99.99,,2013-02-21 23:21:00,
2013-02-21 18:32:00,22.0,14.0,-100.00,East,100,8.0,17.0,71,0.00,,,-99.99,,2013-02-21 23:32:00,
2013-02-21 18:42:00,22.0,15.0,-100.00,ESE,110,9.0,13.0,72,0.00,,,-99.99,,2013-02-21 23:42:00,
2013-02-21 18:52:00,22.0,15.0,-100.00,SE,125,10.0,16.0,73,0.00,,,-99.99,,2013-02-21 23:52:00,
2013-02-21 19:01:00,22.0,15.0,-100.00,East,100,7.0,16.0,73,0.00,,,-99.99,,2013-02-22 00:01:00,
2013-02-21 19:11:00,22.0,14.0,-100.00,ESE,105,9.0,14.0,73,0.00,,,-99.99,,2013-02-22 00:11:00,
2013-02-21 19:21:00,21.0,14.0,-100.00,East,90,13.0,19.0,73,0.00,,,-99.99,,2013-02-22 00:21:00,
2013-02-21 19:32:00,22.0,15.0,-100.00,East,95,7.0,18.0,73,0.00,,,-99.99,,2013-02-22 00:32:00,
2013-02-21 19:42:00,22.0,15.0,-100.00,ESE,105,7.0,18.0,73,0.00,,,-99.99,,2013-02-22 00:42:00,
2013-02-21 19:51:00,22.0,15.0,-100.00,ESE,115,11.0,19.0,74,0.00,,,-99.99,,2013-02-22 00:51:00,
2013-02-21 20:01:00,22.0,15.0,-100.00,ESE,105,7.0,16.0,75,0.00,,,-99.99,,2013-02-22 01:01:00,
2013-02-21 20:11:00,22.0,15.0,-100.00,East,100,12.0,17.0,75,0.00,,,-99.99,,2013-02-22 01:11:00,
2013-02-21 20:21:00,22.0,15.0,-100.00,East,80,9.0,15.0,75,0.00,,,-99.99,,2013-02-22 01:21:00,
2013-02-21 20:32:00,22.0,15.0,-100.00,ESE,110,9.0,16.0,75,0.00,,,-99.99,,2013-02-22 01:32:00,
2013-02-21 20:42:00,22.0,16.0,-100.00,ESE,105,6.0,18.0,75,0.00,,,-99.99,,2013-02-22 01:42:00,
2013-02-21 20:51:00,22.0,16.0,-100.00,East,100,9.0,16.0,75,0.00,,,-99.99,,2013-02-22 01:51:00,
2013-02-21 21:02:00,22.0,16.0,-100.00,East,95,8.0,16.0,76,0.00,,,-99.99,,2013-02-22 02:02:00,
2013-02-21 21:11:00,22.0,16.0,-100.00,ESE,105,8.0,12.0,76,0.00,,,-99.99,,2013-02-22 02:11:00,
2013-02-21 21:21:00,22.0,16.0,-100.00,ESE,120,9.0,17.0,77,0.00,,,-99.99,,2013-02-22 02:21:00,
2013-02-21 21:32:00,22.0,16.0,-100.00,East,95,9.0,15.0,77,0.00,,,-99.99,,2013-02-22 02:32:00,
2013-02-21 21:42:00,22.0,16.0,-100.00,ESE,110,11.0,18.0,77,0.00,,,-99.99,,2013-02-22 02:42:00,
2013-02-21 21:52:00,22.0,16.0,-100.00,ESE,110,10.0,15.0,77,0.00,,,-99.99,,2013-02-22 02:52:00,
2013-02-21 22:02:00,22.0,17.0,-100.00,ESE,110,9.0,18.0,77,0.00,,,-99.99,,2013-02-22 03:02:00,
2013-02-21 22:11:00,22.0,17.0,-100.00,ESE,110,9.0,18.0,77,0.00,,,-99.99,,2013-02-22 03:11:00,
2013-02-21 22:21:00,23.0,17.0,-100.00,ESE,105,9.0,16.0,77,0.00,,,-99.99,,2013-02-22 03:21:00,
2013-02-21 22:32:00,23.0,17.0,-100.00,East,100,12.0,21.0,78,0.00,,,-99.99,,2013-02-22 03:32:00,
2013-02-21 22:42:00,23.0,17.0,-100.00,ESE,120,7.0,14.0,78,0.00,,,-99.99,,2013-02-22 03:42:00,
2013-02-21 22:52:00,23.0,17.0,-100.00,SE,125,8.0,16.0,79,0.00,,,-99.99,,2013-02-22 03:52:00,
2013-02-21 23:02:00,23.0,17.0,-100.00,ESE,105,11.0,18.0,79,0.00,,,-99.99,,2013-02-22 04:02:00,
2013-02-21 23:11:00,23.0,17.0,-100.00,ESE,115,7.0,16.0,79,0.00,,,-99.99,,2013-02-22 04:11:00,
2013-02-21 23:21:00,23.0,17.0,-100.00,ESE,115,10.0,15.0,79,0.00,,,-99.99,,2013-02-22 04:21:00,
2013-02-21 23:32:00,23.0,17.0,-100.00,ESE,115,9.0,15.0,79,0.00,,,-99.99,,2013-02-22 04:32:00,
2013-02-21 23:42:00,23.0,18.0,-100.00,ESE,105,7.0,13.0,79,0.00,,,-99.99,,2013-02-22 04:42:00,
2013-02-21 23:51:00,23.0,18.0,-100.00,ESE,110,10.0,17.0,79,0.00,,,-99.99,,2013-02-22 04:51:00,